View from above orbital plane
|
View from above satellite
|
Ground track
|
The orbit data is extracted from the following two-line orbital elements,
1 00016U 58002A 21109.94512547 .00000188 00000-0 28863-3 0 9999
2 00016 34.2663 349.8367 2024923 89.9501 293.1470 10.48711285491015
Epoch (UTC): | 19 April 2021 22:40:58 |
Eccentricity: | 0.2024923 |
inclination: | 34.2663° |
perigee height: | 653 km |
apogee height: | 4223 km |
right ascension of ascending node: | 349.8367° |
argument of perigee: | 89.9501° |
revolutions per day: | 10.48711285 |
mean anomaly at epoch: | 293.1470° |
orbit number at epoch: | 49101 |
The dashed part of the orbit path shows where the satellite is in the earth's shadow,
|
|